Location: Aghk�ilisa
(40.0189°N, 45.0097°E)
Time: 07:07:23
(UTC+00:00)

Cosmos 1833 Rocket - Pass Details

Date: 21 October 2019
Orbit: 833 x 839 km, 71.0° (Epoch: 18 November)

Event Time Altitude Azimuth Distance (km) Brightness Sun altitude
Rises 15:47:07 0° 334° (NNW) 3,390 6.2 -18.8°
Reaches altitude 10° 15:49:34 10° 331° (NNW) 2,453 5.5 -19.3°
Maximum altitude 15:55:08 67° 251° (WSW) 903 3.0 -20.4°
Drops below altitude 10° 16:00:41 10° 169° (S) 2,441 4.9 -21.4°
Sets 16:03:08 0° 167° (SSE) 3,372 5.7 -21.9°
